This demonstration page uses our WeatherBlox Daily Observations layout. Learn more.

Left ArrowRight Arrow

Hourly Observations for February 14, 2016

Temp ( °F °C ) Dew Point ( °F °C ) Humidity (%) Winds ( mph kmh ) Pressure ( in mb ) Visibility ( mi km ) Precip ( " mm )
12:15 am 00:15 Mostly Cloudy 18 -8 10 -12 73 73 S 12 19 30.15 1021 10 16 0.00 0.00
12:35 am 00:35 Partly Cloudy 18 -8 10 -12 73 73 S 9 15 30.15 1021 10 16 0.00 0.00
12:55 am 00:55 Cloudy 18 -8 10 -12 73 73 S 10 17 30.15 1021 10 16 0.00 0.00
1:15 am 01:15 Cloudy 19 -7 12 -11 73 73 S 12 19 30.15 1021 10 16 0.00 0.00
1:35 am 01:35 Cloudy 21 -6 12 -11 68 68 SW 8 13 30.15 1021 10 16 0.00 0.00
1:55 am 01:55 Mostly Cloudy 21 -6 12 -11 68 68 S 13 20 30.12 1020 10 16 0.00 0.00
2:15 am 02:15 Mostly Clear 19 -7 12 -11 73 73 SSW 14 22 30.12 1020 10 16 0.00 0.00
2:35 am 02:35 Clear 21 -6 12 -11 68 68 SW 14 22 30.12 1020 10 16 0.00 0.00
2:55 am 02:55 Clear 21 -6 12 -11 68 68 SW 10 17 30.09 1019 10 16 0.00 0.00
3:15 am 03:15 Clear 21 -6 14 -10 74 74 SW 10 17 30.09 1019 10 16 0.00 0.00
3:35 am 03:35 Clear 21 -6 16 -9 80 80 SW 12 19 30.03 1017 10 16 0.00 0.00
3:55 am 03:55 Clear 21 -6 16 -9 80 80 SW 15 24 30.00 1016 10 16 0.00 0.00
4:15 am 04:15 Clear 23 -5 18 -8 80 80 WSW 10 17 30.00 1016 10 16 0.00 0.00
4:35 am 04:35 Clear 25 -4 18 -8 74 74 WSW 8 13 30.00 1016 10 16 0.00 0.00
4:55 am 04:55 Clear 25 -4 19 -7 80 80 W 9 15 30.00 1016 10 16 0.00 0.00
5:15 am 05:15 Clear 27 -3 21 -6 80 80 W 10 17 29.97 1015 10 16 0.00 0.00
5:35 am 05:35 Clear 28 -2 25 -4 86 86 W 13 20 29.97 1015 10 16 0.00 0.00
5:55 am 05:55 Clear 34 1 27 -3 75 75 WNW 13 20 29.94 1014 10 16 0.00 0.00
6:15 am 06:15 Clear 32 0 27 -3 80 80 W 10 17 29.97 1015 10 16 0.00 0.00
6:35 am 06:35 Clear 34 1 27 -3 75 75 W 13 20 29.94 1014 10 16 0.00 0.00
6:55 am 06:55 Clear 32 0 25 -4 75 75 W 13 20 29.97 1015 10 16 0.00 0.00
7:15 am 07:15 Clear 34 1 27 -3 75 75 W 15 24 29.94 1014 10 16 0.00 0.00
7:35 am 07:35 Sunny 34 1 25 -4 70 70 W 14 22 29.94 1014 10 16 0.00 0.00
7:55 am 07:55 Sunny 34 1 27 -3 75 75 W 15 24 29.94 1014 10 16 0.00 0.00
8:15 am 08:15 Sunny 36 2 27 -3 70 70 W 9 15 29.94 1014 10 16 0.00 0.00
8:35 am 08:35 Sunny 36 2 27 -3 70 70 W 10 17 29.94 1014 10 16 0.00 0.00
8:55 am 08:55 Sunny 36 2 27 -3 70 70 W 10 17 29.94 1014 10 16 0.00 0.00
9:15 am 09:15 Sunny 36 2 27 -3 70 70 WNW 12 19 29.94 1014 10 16 0.00 0.00
9:35 am 09:35 Sunny 37 3 27 -3 65 65 WNW 12 19 29.94 1014 10 16 0.00 0.00
9:55 am 09:55 Sunny 39 4 27 -3 61 61 WNW 12 19 29.91 1013 10 16 0.00 0.00
10:15 am 10:15 Sunny 39 4 28 -2 65 65 WNW 9 15 29.91 1013 10 16 0.00 0.00
10:35 am 10:35 Sunny 39 4 28 -2 65 65 NW 8 13 29.91 1013 10 16 0.00 0.00
10:55 am 10:55 Sunny 43 6 28 -2 57 57 WNW 10 17 29.91 1013 10 16 0.00 0.00
11:15 am 11:15 Sunny 43 6 27 -3 53 53 WNW 9 15 29.91 1013 10 16 0.00 0.00
11:35 am 11:35 Sunny 45 7 28 -2 53 53 WNW 10 17 29.91 1013 10 16 0.00 0.00
11:55 am 11:55 Sunny 45 7 28 -2 53 53 NW 9 15 29.91 1013 10 16 0.00 0.00
12:15 pm 12:15 Sunny 45 7 28 -2 53 53 WNW 9 15 29.91 1013 10 16 0.00 0.00
12:35 pm 12:35 Sunny 45 7 28 -2 53 53 WNW 9 15 29.91 1013 10 16 0.00 0.00
12:55 pm 12:55 Sunny 46 8 28 -2 50 50 WNW 9 15 29.88 1012 10 16 0.00 0.00
1:15 pm 13:15 Sunny 46 8 30 -1 53 53 W 12 19 29.88 1012 10 16 0.00 0.00
1:35 pm 13:35 Sunny 46 8 28 -2 50 50 WSW 12 19 29.88 1012 10 16 0.00 0.00
1:55 pm 13:55 Partly Cloudy 46 8 28 -2 50 50 SW 13 20 29.85 1011 10 16 0.00 0.00
2:15 pm 14:15 Partly Cloudy 46 8 28 -2 50 50 W 10 17 29.85 1011 10 16 0.00 0.00
2:35 pm 14:35 Partly Cloudy 46 8 28 -2 50 50 W 10 17 29.85 1011 10 16 0.00 0.00
2:55 pm 14:55 Partly Cloudy 48 9 28 -2 46 46 WSW 12 19 29.85 1011 10 16 0.00 0.00
3:15 pm 15:15 Mostly Sunny 46 8 30 -1 53 53 WSW 12 19 29.85 1011 10 16 0.00 0.00
3:35 pm 15:35 Mostly Sunny 46 8 30 -1 53 53 WSW 13 20 29.85 1011 10 16 0.00 0.00
3:55 pm 15:55 Partly Cloudy 48 9 30 -1 50 50 WSW 13 20 29.85 1011 10 16 0.00 0.00
4:15 pm 16:15 Partly Cloudy 48 9 28 -2 46 46 WSW 13 20 29.85 1011 10 16 0.00 0.00
4:35 pm 16:35 Mostly Sunny 46 8 30 -1 53 53 SW 15 24 29.85 1011 10 16 0.00 0.00
4:55 pm 16:55 Sunny 45 7 30 -1 57 57 WSW 13 20 29.85 1011 10 16 0.00 0.00
5:15 pm 17:15 Sunny 45 7 30 -1 57 57 WSW 10 17 29.85 1011 10 16 0.00 0.00
5:35 pm 17:35 Sunny 43 6 30 -1 61 61 WSW 12 19 29.88 1012 10 16 0.00 0.00
5:55 pm 17:55 Sunny 43 6 30 -1 61 61 WSW 10 17 29.88 1012 10 16 0.00 0.00
6:15 pm 18:15 Mostly Clear 43 6 30 -1 61 61 WSW 8 13 29.88 1012 10 16 0.00 0.00
6:35 pm 18:35 Mostly Clear 41 5 30 -1 66 66 WSW 6 9 29.88 1012 10 16 0.00 0.00
6:55 pm 18:55 Clear 39 4 28 -2 65 65 WSW 6 9 29.88 1012 10 16 0.00 0.00
7:15 pm 19:15 Clear 37 3 28 -2 70 70 SW 9 15 29.91 1013 10 16 0.00 0.00
7:35 pm 19:35 Clear 37 3 28 -2 70 70 WSW 5 7 29.91 1013 10 16 0.00 0.00
7:55 pm 19:55 Clear 37 3 28 -2 70 70 WSW 7 11 29.91 1013 10 16 0.00 0.00
8:15 pm 20:15 Clear 36 2 27 -3 70 70 Calm 29.91 1013 10 16 0.00 0.00
8:35 pm 20:35 Mostly Cloudy 36 2 27 -3 70 70 WSW 8 13 29.91 1013 10 16 0.00 0.00
8:55 pm 20:55 Partly Cloudy 36 2 27 -3 70 70 SW 7 11 29.91 1013 10 16 0.00 0.00
9:15 pm 21:15 Mostly Cloudy 36 2 28 -2 75 75 WSW 6 9 29.91 1013 10 16 0.00 0.00
9:35 pm 21:35 Cloudy 36 2 28 -2 75 75 Calm 29.91 1013 10 16 0.00 0.00
9:55 pm 21:55 Cloudy 34 1 28 -2 81 81 Calm 29.91 1013 10 16 0.00 0.00
10:15 pm 22:15 Mostly Cloudy 32 0 28 -2 87 87 Calm 29.91 1013 10 16 0.00 0.00
10:35 pm 22:35 Partly Cloudy 32 0 28 -2 87 87 NNW 3 6 29.91 1013 10 16 0.00 0.00
10:55 pm 22:55 Partly Cloudy 32 0 27 -3 80 80 WNW 7 11 29.97 1015 10 16 0.00 0.00
11:15 pm 23:15 Clear 34 1 28 -2 81 81 WNW 5 7 29.91 1013 10 16 0.00 0.00
11:35 pm 23:35 Mostly Cloudy 32 0 27 -3 80 80 W 6 9 29.91 1013 10 16 0.00 0.00
11:55 pm 23:55 Cloudy 34 1 28 -2 81 81 WNW 10 17 29.94 1014 10 16 0.00 0.00

Powered by AerisWeather